DW8320 Weather Reports


time (UTC)temp
C
wind
direction
speed
KPH
gust
KPH
rain 1hr
cm
rain 24hr
cm
rain mn
cm
humidity
%
barometer
mb
20260505073113 17 20 0.0 1.6 0.00 0.00 0.00 59 1006.2
20260505072548 17 341 0.0 1.6 0.00 0.00 0.00 58 1006.1
20260505072034 17 68 0.0 1.6 0.00 0.00 0.00 58 1005.9
20260505071528 17 359 0.0 3.2 0.00 0.00 0.00 57 1005.9
20260505071101 17 77 0.0 3.2 0.00 0.00 0.00 57 1005.9
20260505070552 17 86 0.0 1.6 0.00 0.00 0.00 56 1005.8
20260505070041 17 342 0.0 1.6 0.00 0.00 0.00 57 1005.9
20260505065513 17 156 0.0 1.6 0.00 0.00 0.00 56 1005.9
20260505065058 17 88 0.0 1.6 0.00 0.00 0.00 55 1005.8
20260505064549 17 91 0.0 9.7 0.00 0.00 0.00 55 1005.8
20260505064037 18 72 1.6 9.7 0.00 0.00 0.00 54 1005.8
20260505063523 18 105 0.0 11.3 0.00 0.00 0.00 54 1005.9
20260505063004 18 153 0.0 11.3 0.00 0.00 0.00 54 1005.8
20260505062553 18 174 0.0 9.7 0.00 0.00 0.00 55 1005.8
20260505062038 18 123 0.0 9.7 0.00 0.00 0.00 55 1005.9
20260505061526 18 222 1.6 6.4 0.00 0.00 0.00 54 1005.8
20260505061018 18 133 0.0 4.8 0.00 0.00 0.00 55 1005.8
20260505060601 18 146 0.0 4.8 0.00 0.00 0.00 54 1005.8
20260505060053 18 70 0.0 4.8 0.00 0.00 0.00 54 1005.7
20260505055532 18 108 0.0 9.7 0.00 0.00 0.00 53 1005.6
20260505055017 18 77 1.6 9.7 0.00 0.00 0.00 53 1005.4
20260505054502 18 141 0.0 9.7 0.00 0.00 0.00 52 1005.3
20260505054053 18 82 0.0 9.7 0.00 0.00 0.00 52 1005.2
20260505053543 18 215 0.0 12.9 0.00 0.00 0.00 52 1005.3
20260505053033 18 129 1.6 12.9 0.00 0.00 0.00 52 1005.2
20260505052524 18 91 0.0 4.8 0.00 0.00 0.00 52 1005.2
20260505052017 18 166 0.0 11.3 0.00 0.00 0.00 52 1005.2
20260505051607 19 183 1.6 11.3 0.00 0.00 0.00 51 1005.2
20260505051045 19 138 0.0 8.0 0.00 0.00 0.00 53 1005.1
20260505050530 18 158 0.0 6.4 0.00 0.00 0.00 52 1005.1
20260505050111 18 163 0.0 4.8 0.00 0.00 0.00 52 1005.4
20260505041604 18 205 0.0 4.8 0.00 0.00 0.00 53 1005.8
20260505041043 18 101 0.0 4.8 0.00 0.00 0.00 53 1005.8
20260505040529 18 195 0.0 4.8 0.00 0.00 0.00 53 1005.9
20260505040111 18 148 0.0 4.8 0.00 0.00 0.00 54 1005.9
20260505035538 18 165 0.0 4.8 0.00 0.00 0.00 55 1006.0
20260505035030 18 242 0.0 3.2 0.00 0.00 0.00 55 1006.0
20260505034516 18 193 0.0 3.2 0.00 0.00 0.00 55 1006.0
20260505034057 18 113 0.0 1.6 0.00 0.00 0.00 54 1006.1
20260505033543 18 215 0.0 6.4 0.00 0.00 0.00 55 1006.0
20260505033036 18 146 0.0 6.4 0.00 0.00 0.00 54 1006.1
20260505032522 18 61 0.0 4.8 0.00 0.00 0.00 55 1006.0
20260505032015 19 155 0.0 6.4 0.00 0.00 0.00 55 1005.9
20260505031554 19 169 0.0 6.4 0.00 0.00 0.00 54 1006.0
20260505031043 19 119 0.0 11.3 0.00 0.00 0.00 54 1005.9
20260505030525 19 128 1.6 11.3 0.00 0.00 0.00 54 1005.9
20260505030136 18 104 0.0 6.4 0.00 0.00 0.00 55 1005.8
20260505025541 19 84 0.0 1.6 0.00 0.00 0.00 54 1005.8
20260505025033 19 105 0.0 11.3 0.00 0.00 0.00 54 1005.7
20260505024519 19 174 1.6 11.3 0.00 0.00 0.00 54 1005.7
20260505024004 19 129 0.0 4.8 0.00 0.00 0.00 54 1005.6
20260505023551 18 197 1.6 4.8 0.00 0.00 0.00 55 1005.5
20260505023039 18 172 0.0 3.2 0.00 0.00 0.00 56 1005.5
20260505022527 18 203 0.0 3.2 0.00 0.00 0.00 56 1005.5
20260505022013 18 186 0.0 3.2 0.00 0.00 0.00 57 1005.4
20260505021602 18 228 0.0 1.6 0.00 0.00 0.00 57 1005.4
20260505021050 18 129 0.0 4.8 0.00 0.00 0.00 56 1005.3
20260505020539 18 156 0.0 4.8 0.00 0.00 0.00 57 1005.1
20260505020009 18 187 0.0 4.8 0.00 0.00 0.00 56 1005.0
20260505015557 18 187 0.0 4.8 0.00 0.00 0.00 56 1004.9
20260505015048 18 181 0.0 3.2 0.00 0.00 0.00 57 1004.9
20260505014540 18 183 0.0 3.2 0.00 0.00 0.00 56 1004.8
20260505014029 18 84 0.0 1.6 0.00 0.00 0.00 56 1004.8
20260505013513 18 119 0.0 1.6 0.00 0.00 0.00 56 1004.7
20260505013127 18 210 0.0 3.2 0.00 0.00 0.00 56 1004.7
20260505012551 18 198 0.0 3.2 0.00 0.00 0.00 56 1004.8
20260505012041 18 122 0.0 1.6 0.00 0.00 0.00 55 1004.7
20260505011526 19 122 0.0 1.6 0.00 0.00 0.00 54 1004.6
20260505011001 19 120 0.0 4.8 0.00 0.00 0.00 54 1004.7
20260505010554 19 167 0.0 1.6 0.00 0.00 0.00 53 1004.7
20260505010048 20 149 0.0 1.6 0.00 0.00 0.00 53 1004.6
20260505005516 20 139 0.0 3.2 0.00 0.00 0.00 52 1004.7
20260505005051 20 139 0.0 3.2 0.00 0.00 0.00 51 1004.7
20260505004541 20 158 0.0 3.2 0.00 0.00 0.00 50 1004.7
20260505004024 20 134 0.0 4.8 0.00 0.00 0.00 49 1004.7
20260505003508 21 284 1.6 4.8 0.00 0.00 0.00 49 1004.6
20260505003102 21 173 0.0 4.8 0.00 0.00 0.00 49 1004.6
20260505002541 21 200 0.0 3.2 0.00 0.00 0.00 48 1004.6
20260505002031 21 94 0.0 3.2 0.00 0.00 0.00 48 1004.6
20260505001517 21 160 0.0 3.2 0.00 0.00 0.00 47 1004.7
20260505001100 21 177 0.0 1.6 0.00 0.00 0.00 48 1004.7
20260505000546 21 116 0.0 4.8 0.00 0.00 0.00 47 1004.7
20260505000022 21 156 0.0 4.8 0.00 0.00 0.00 45 1004.8
20260504235513 21 94 0.0 8.0 0.00 0.00 0.00 47 1004.9
20260504235058 21 162 0.0 12.9 0.00 0.00 0.00 45 1005.0
20260504234541 21 127 1.6 12.9 0.00 0.00 0.00 46 1005.0
20260504234031 21 126 0.0 4.8 0.00 0.00 0.00 46 1005.2
20260504233518 21 195 0.0 3.2 0.00 0.00 0.00 47 1005.3
20260504233107 21 172 0.0 1.6 0.00 0.00 0.00 45 1005.3
20260504232549 21 132 0.0 3.2 0.00 0.00 0.00 44 1005.4
20260504232035 22 170 0.0 4.8 0.00 0.00 0.00 44 1005.4
20260504231523 22 70 0.0 4.8 0.00 0.00 0.00 43 1005.4
20260504231010 22 153 0.0 4.8 0.00 0.00 0.00 43 1005.4
20260504230604 22 86 0.0 8.0 0.00 0.00 0.00 43 1005.4
20260504230059 22 319 1.6 8.0 0.00 0.00 0.00 42 1005.3
20260504225529 22 139 0.0 4.8 0.00 0.00 0.00 44 1005.5
20260504225021 22 23 0.0 3.2 0.00 0.00 0.00 44 1005.5
20260504224503 22 91 0.0 6.4 0.00 0.00 0.00 45 1005.6
20260504224055 22 132 0.0 6.4 0.00 0.00 0.00 44 1005.4
20260504223545 23 148 0.0 9.7 0.00 0.00 0.00 45 1005.5
20260504223038 23 320 0.0 11.3 0.00 0.00 0.00 47 1005.6
20260504222514 23 205 0.0 6.4 0.00 0.00 0.00 45 1005.7
20260504222002 23 163 0.0 6.4 0.00 0.00 0.00 46 1005.6
20260504221602 23 153 0.0 6.4 0.00 0.00 0.00 45 1005.7
20260504221045 23 162 0.0 4.8 0.00 0.00 0.00 45 1005.7
20260504220535 23 155 0.0 6.4 0.00 0.00 0.00 46 1005.6
20260504220001 23 208 0.0 8.0 0.00 0.00 0.00 44 1005.5
20260504215553 23 199 1.6 8.0 0.00 0.00 0.00 45 1005.7
20260504215040 23 145 0.0 6.4 0.00 0.00 0.00 45 1005.9
20260504214533 23 150 0.0 6.4 0.00 0.00 0.00 47 1005.9
20260504214018 23 101 0.0 6.4 0.00 0.00 0.00 47 1006.1
20260504213602 23 91 0.0 8.0 0.00 0.00 0.00 47 1006.1
20260504213055 24 167 0.0 8.0 0.00 0.00 0.00 42 1006.1
20260504212534 24 200 0.0 3.2 0.00 0.00 0.00 44 1006.2
20260504212029 24 146 0.0 1.6 0.00 0.00 0.00 43 1006.3
20260504211503 23 146 0.0 1.6 0.00 0.00 0.00 47 1006.4
20260504211053 23 146 0.0 4.8 0.00 0.00 0.00 43 1006.5
20260504210541 24 319 0.0 4.8 0.00 0.00 0.00 43 1006.5
20260504210005 24 5 0.0 1.6 0.00 0.00 0.00 43 1006.7
20260504205553 24 54 0.0 4.8 0.00 0.00 0.00 43 1006.7
20260504205042 23 323 0.0 4.8 0.00 0.00 0.00 44 1006.7
20260504204528 23 160 0.0 3.2 0.00 0.00 0.00 45 1006.7
20260504204011 23 214 0.0 6.4 0.00 0.00 0.00 46 1006.8
20260504203558 24 201 0.0 6.4 0.00 0.00 0.00 47 1006.8
20260504203046 24 243 0.0 6.4 0.00 0.00 0.00 45 1006.9
20260504202531 23 330 0.0 1.6 0.00 0.00 0.00 48 1007.1
20260504202012 23 79 0.0 6.4 0.00 0.00 0.00 49 1007.1
20260504201636 23 43 0.0 6.4 0.00 0.00 0.00 49 1007.2
20260504201053 23 153 0.0 4.8 0.00 0.00 0.00 49 1007.2
20260504200533 24 152 0.0 4.8 0.00 0.00 0.00 44 1007.3
20260504200002 25 96 0.0 8.0 0.00 0.00 0.00 43 1007.3
20260504195551 24 113 0.0 11.3 0.00 0.00 0.00 43 1007.3
20260504195041 24 200 1.6 11.3 0.00 0.00 0.00 47 1007.5
20260504194533 24 312 0.0 3.2 0.00 0.00 0.00 48 1007.6
20260504194027 23 290 0.0 8.0 0.00 0.00 0.00 43 1007.6
20260504193514 23 104 0.0 8.0 0.00 0.00 0.00 46 1007.7
20260504193109 23 134 0.0 3.2 0.00 0.00 0.00 53 1007.9
20260504192544 23 134 0.0 6.4 0.00 0.00 0.00 52 1007.9
20260504192037 22 134 0.0 6.4 0.00 0.00 0.00 55 1008.1
20260504191529 21 290 0.0 4.8 0.00 0.00 0.00 57 1008.1
20260504191015 21 129 0.0 4.8 0.00 0.00 0.00 54 1008.0
20260504190559 21 153 1.6 3.2 0.00 0.00 0.00 56 1008.2
20260504190114 21 345 0.0 1.6 0.00 0.00 0.00 60 1008.4
20260504185529 21 51 0.0 4.8 0.00 0.00 0.00 58 1008.4
20260504185010 20 190 0.0 3.2 0.00 0.00 0.00 57 1008.4
20260504184620 20 160 0.0 3.2 0.00 0.00 0.00 60 1008.5
20260504184041 20 174 0.0 3.2 0.00 0.00 0.00 56 1008.6
20260504183532 21 198 0.0 4.8 0.00 0.00 0.00 57 1008.7
20260504183009 21 299 0.0 6.4 0.00 0.00 0.00 56 1008.5
20260504182557 21 159 0.0 6.4 0.00 0.00 0.00 52 1008.5
20260504182045 21 226 0.0 4.8 0.00 0.00 0.00 53 1008.4
20260504181536 21 176 0.0 9.7 0.00 0.00 0.00 51 1008.4
20260504181018 21 146 3.2 12.9 0.00 0.00 0.00 50 1008.3
20260504180506 22 233 1.6 12.9 0.00 0.00 0.00 49 1008.2
20260504180100 22 169 1.6 12.9 0.00 0.00 0.00 50 1008.2
20260504175533 22 174 0.0 16.1 0.00 0.00 0.00 51 1008.0
20260504175019 22 158 1.6 16.1 0.00 0.00 0.00 49 1007.9
20260504174502 22 131 4.8 14.5 0.00 0.00 0.00 48 1007.9
20260504174045 22 172 3.2 22.5 0.00 0.00 0.00 50 1007.8
20260504173538 23 200 4.8 20.9 0.00 0.00 0.00 46 1007.7
20260504173031 23 77 3.2 9.7 0.00 0.00 0.00 49 1007.8
20260504172503 22 98 0.0 3.2 0.00 0.00 0.00 52 1007.8
20260504172055 21 174 0.0 3.2 0.00 0.00 0.00 54 1007.9
20260504171546 21 332 0.0 3.2 0.00 0.00 0.00 53 1008.0
20260504171037 21 150 0.0 8.0 0.00 0.00 0.00 56 1008.1
20260504170528 20 298 0.0 12.9 0.00 0.00 0.00 54 1008.1
20260504170109 20 1 1.6 12.9 0.00 0.00 0.00 52 1007.5
20260504160113 20 358 0.0 4.8 0.00 0.00 0.00 55 1008.7
20260504151047 19 156 0.0 1.6 0.00 0.00 0.00 56 1008.9
20260504150538 18 156 0.0 3.2 0.00 0.00 0.00 57 1008.7
20260504141007 17 113 0.0 8.0 0.00 0.00 0.00 59 1009.0
20260504140601 17 146 0.0 8.0 0.00 0.00 0.00 57 1009.2
20260504130602 13 132 1.6 6.4 0.00 0.00 0.00 63 1009.4
20260504120121 12 118 0.0 4.8 0.00 0.00 0.00 67 1009.7
20260504110523 11 163 0.0 6.4 0.00 0.00 0.00 64 1009.4
20260504110115 11 153 0.0 6.4 0.00 0.00 0.00 65 1009.4
20260504100539 10 145 0.0 1.6 0.00 0.00 0.00 65 1009.8
20260504081535 11 188 0.0 1.6 0.00 0.00 0.00 58 1010.4
20260504081010 11 200 0.0 4.8 0.00 0.00 0.00 58 1010.4
20260504080603 11 208 0.0 1.6 0.00 0.00 0.00 57 1010.5